[[{"header":{"parameterUnit":"m.s-1","parameterCategory":1,"la1":30.2991,"la2":30.254,"lo1":-89.0895,"lo2":-89.0444,"dy":0.0017,"dx":0.0017,"nx":28,"ny":28,"refTime":"2025-08-23T21:00:00:Z","depth":0,"parameterNumber":2,"parameterNumberName":"U-component_of_WINDS"},"data":[0,0,0,0,0,0,0,0,0,0,0,0,0,0,0,0,0,0,0,0,0,0,0,0,0,0,0,0,0,0,0,0,0,0,0,0,0,0,0,0,0,0,0,0,0,0,0,0,0,0,0,0,0,0,0,0,0,0,-0.18,-0.1801,0,-0.1857,-0.1857,-0.1858,-0.1878,-0.1878,-0.1878,-0.1877,-0.1937,-0.1939,-0.1941,0,0,0,0,0,0,0,0,0,0,0,0,0,-0.171,-0.1712,-0.18,-0.1801,-0.1802,-0.1857,-0.1857,-0.1858,-0.1878,-0.1878,-0.1878,-0.1877,-0.1937,-0.1939,-0.1941,0,0,0,0,0,0,0,0,0,0,0,0,0,-0.1756,-0.1712,-0.18,-0.1818,-0.182,-0.1856,-0.1857,-0.1858,-0.1878,-0.1878,-0.1877,-0.1877,-0.1936,-0.1939,-0.1941,-0.1964,0,0,-0.1949,-0.1951,0,0,0,0,0,0,0,0,-0.1754,-0.176,-0.1815,-0.1817,-0.1819,-0.186,-0.1848,-0.1894,-0.1878,-0.1856,-0.1877,-0.1877,-0.1912,-0.1917,-0.1928,-0.1967,-0.197,-0.195,-0.1951,-0.1952,-0.1953,0,0,0,0,0,0,0,-0.1751,-0.1757,-0.1823,-0.1816,-0.1818,-0.1824,-0.183,-0.1857,-0.1885,-0.1858,-0.186,-0.1866,-0.1913,-0.1925,-0.1929,-0.197,-0.195,-0.1952,-0.1954,-0.1955,-0.203,-0.203,0,0,0,0,0,0,-0.1744,-0.1755,-0.1821,-0.1824,-0.1785,-0.1826,-0.1832,-0.1847,-0.1885,-0.189,-0.1866,-0.1867,-0.1921,-0.1926,-0.1932,-0.196,-0.1952,-0.1955,-0.1956,-0.2029,-0.203,-0.203,0,0,0,0,0,0,-0.1742,-0.175,-0.1819,-0.179,-0.1799,-0.1827,-0.1844,-0.1849,-0.1861,-0.1891,-0.1896,-0.1873,-0.1921,-0.1928,-0.1955,-0.1963,-0.1956,-0.1959,-0.2029,-0.2029,-0.203,-0.2018,0,0,0,0,0,0,-0.174,-0.1749,-0.1758,-0.179,-0.18,-0.1841,-0.1844,-0.185,-0.1865,-0.1866,-0.1899,-0.1904,-0.1921,-0.1951,-0.1958,-0.1966,-0.1961,-0.2028,-0.2029,-0.203,-0.2018,-0.2018,-0.2019,0,0,0,0,0,-0.1736,-0.1753,-0.1758,-0.1766,-0.1812,-0.1842,-0.1848,-0.1866,-0.1866,-0.1875,-0.1894,-0.1903,-0.1961,-0.1954,-0.1962,-0.1971,-0.2028,-0.2029,-0.203,-0.2018,-0.2018,-0.2019,0,0,0,0,0,0,-0.1723,-0.1758,-0.1764,-0.1792,-0.1813,-0.1845,-0.1858,-0.1866,-0.1889,-0.1889,-0.1912,-0.1919,-0.1945,-0.1961,-0.1953,-0.1994,-0.1995,-0.1997,-0.1983,-0.1984,-0.1984,-0.198,-0.1963,0,0,0,0,0,-0.1723,-0.1743,-0.1773,-0.1795,-0.1805,-0.1829,-0.1843,-0.1855,-0.1879,-0.1888,-0.1909,-0.1932,-0.1955,-0.197,-0.1994,-0.202,-0.2027,-0.203,-0.203,-0.203,-0.2032,-0.2047,-0.2048,-0.2033,-0.2033,-0.2033,0,0,-0.1724,-0.1745,-0.1757,-0.1792,-0.1811,-0.1832,-0.1837,-0.1859,-0.1875,-0.1892,-0.1919,-0.1935,-0.1962,-0.1989,-0.2002,-0.2003,-0.2038,-0.2031,-0.2031,-0.2033,-0.2048,-0.2049,-0.205,-0.2034,-0.2034,-0.2033,0,0,-0.1736,-0.1754,-0.1774,-0.1791,-0.1818,-0.1834,-0.1838,-0.1868,-0.1879,-0.1907,-0.1919,-0.1938,-0.1978,-0.1996,-0.2011,-0.2027,-0.2037,-0.2034,-0.2036,-0.205,-0.2051,-0.2052,-0.2058,-0.2059,-0.2036,-0.2036,-0.2036,0,-0.1733,-0.1765,-0.1783,-0.1804,-0.1819,-0.1833,-0.1853,-0.187,-0.1903,-0.1913,-0.1914,-0.1962,-0.1982,-0.2013,-0.2017,-0.2028,-0.2034,-0.2031,-0.2049,-0.205,-0.2052,-0.2057,-0.2059,-0.2036,-0.2036,-0.2036,-0.2036,0,-0.1761,-0.1782,-0.1795,-0.1826,-0.1842,-0.1862,-0.1883,-0.1897,-0.1907,-0.1923,-0.195,-0.1973,-0.2001,-0.2009,-0.2019,-0.2041,-0.204,-0.2045,-0.2046,-0.2052,-0.2058,-0.206,-0.2035,-0.2035,-0.2035,-0.2035,0,0,-0.1768,-0.1806,-0.1811,-0.1824,-0.1854,-0.1871,-0.1892,-0.1918,-0.1929,-0.1951,-0.1969,-0.2001,-0.2005,-0.2021,-0.2034,-0.2045,-0.2056,-0.2048,-0.2049,-0.2049,-0.2081,-0.2078,-0.208,-0.2062,-0.2063,-0.2063,-0.2078,0,-0.1784,-0.1821,-0.1836,-0.1866,-0.1886,-0.1899,-0.1917,-0.1937,-0.1952,-0.1971,-0.1987,-0.2009,-0.2012,-0.2022,-0.2034,-0.2052,-0.2063,-0.2051,-0.2079,-0.208,-0.2072,-0.2083,-0.208,-0.2094,-0.2081,-0.2081,-0.2082,0,-0.1808,-0.1829,-0.186,-0.1886,-0.1895,-0.1911,-0.1935,-0.1953,-0.1976,-0.1986,-0.2003,-0.2014,-0.2036,-0.2034,-0.2065,-0.2056,-0.2068,-0.2079,-0.208,-0.2083,-0.2082,-0.2087,-0.2099,-0.2101,-0.2085,-0.2085,-0.2085,0,-0.1809,-0.1845,-0.1869,-0.188,-0.1911,-0.1921,-0.1935,-0.1957,-0.1971,-0.1993,-0.2002,-0.2025,-0.2038,-0.2056,-0.2074,-0.2071,-0.2102,-0.2102,-0.2111,-0.211,-0.2118,-0.2117,-0.2131,-0.2124,-0.2124,-0.2124,-0.2124,0,-0.1826,-0.1845,-0.1869,-0.1884,-0.1905,-0.1922,-0.1943,-0.1957,-0.1977,-0.1994,-0.2007,-0.2023,-0.2045,-0.2063,-0.2077,-0.2099,-0.2105,-0.2114,-0.2117,-0.2113,-0.2112,-0.2122,-0.2121,-0.2125,-0.2125,-0.2125,-0.2125,0,-0.1832,-0.1849,-0.1875,-0.1902,-0.1909,-0.1923,-0.1946,-0.196,-0.1975,-0.1996,-0.2002,-0.2025,-0.2047,-0.2066,-0.2096,-0.2105,-0.2128,-0.2132,-0.2121,-0.2122,-0.213,-0.2129,-0.2151,-0.2155,-0.2145,-0.2145,-0.2145,0,-0.1842,-0.1856,-0.1884,-0.1896,-0.1909,-0.1928,-0.1942,-0.1959,-0.1973,-0.1999,-0.201,-0.2033,-0.2053,-0.2088,-0.2107,-0.213,-0.2134,-0.2141,-0.2138,-0.2133,-0.2135,-0.2133,-0.2135,-0.2141,-0.2141,-0.2141,-0.2141,0,-0.1857,-0.1864,-0.1883,-0.1905,-0.1921,-0.1939,-0.1958,-0.1967,-0.1988,-0.2003,-0.2025,-0.204,-0.207,-0.2092,-0.2116,-0.213,-0.2139,-0.2141,-0.2145,-0.2141,-0.2133,-0.2137,-0.2121,-0.2141,-0.2141,-0.2141,-0.2141,-0.2141,-0.1865,-0.1878,-0.1899,-0.192,-0.1935,-0.1952,-0.1966,-0.1981,-0.2,-0.2025,-0.2034,-0.2057,-0.2078,-0.2111,-0.2125,-0.2143,-0.2144,-0.2149,-0.215,-0.2151,-0.215,-0.2129,-0.2148,-0.2148,-0.2148,-0.2148,-0.2148,0,-0.1881,-0.1894,-0.1913,-0.1938,-0.1954,-0.196,-0.198,-0.1993,-0.2013,-0.2032,-0.205,-0.2075,-0.2096,-0.2117,-0.2139,-0.215,-0.2154,-0.2155,-0.2155,-0.2157,-0.2148,-0.2143,-0.2151,-0.2151,-0.2151,-0.2151,-0.2151,-0.2151,-0.1891,-0.1913,-0.1923,-0.1952,-0.1966,-0.1988,-0.1999,-0.2014,-0.2029,-0.2056,-0.2074,-0.2086,-0.2105,-0.2129,-0.2148,-0.2154,-0.2162,-0.2161,-0.2168,-0.2159,-0.2158,-0.2158,-0.2153,-0.2163,-0.2163,-0.2175,-0.2176,-0.2176]},{"header":{"parameterUnit":"m.s-1","parameterCategory":1,"la1":30.2991,"la2":30.254,"lo1":-89.0895,"lo2":-89.0444,"dy":0.0017,"dx":0.0017,"nx":28,"ny":28,"refTime":"2025-08-23T21:00:00:Z","depth":0,"parameterNumber":3,"parameterNumberName":"V-component_of_WINDS"},"data":[0,0,0,0,0,0,0,0,0,0,0,0,0,0,0,0,0,0,0,0,0,0,0,0,0,0,0,0,0,0,0,0,0,0,0,0,0,0,0,0,0,0,0,0,0,0,0,0,0,0,0,0,0,0,0,0,0,0,-3.5234,-3.5235,0,-3.5309,-3.531,-3.5311,-3.5276,-3.5274,-3.5272,-3.527,-3.5343,-3.5346,-3.535,0,0,0,0,0,0,0,0,0,0,0,0,0,-3.5055,-3.5058,-3.5234,-3.5235,-3.5236,-3.5309,-3.531,-3.5311,-3.5276,-3.5274,-3.5271,-3.5269,-3.5341,-3.5346,-3.535,0,0,0,0,0,0,0,0,0,0,0,0,0,-3.5132,-3.506,-3.5234,-3.5227,-3.5227,-3.5309,-3.531,-3.5311,-3.5276,-3.5273,-3.5271,-3.5268,-3.534,-3.5345,-3.5351,-3.5442,0,0,-3.5368,-3.537,0,0,0,0,0,0,0,0,-3.5127,-3.5138,-3.5227,-3.5228,-3.5228,-3.528,-3.5274,-3.5355,-3.5277,-3.5258,-3.527,-3.5267,-3.5324,-3.5331,-3.5351,-3.5445,-3.5448,-3.5368,-3.5372,-3.5374,-3.5376,0,0,0,0,0,0,0,-3.5122,-3.5135,-3.5263,-3.5228,-3.5229,-3.5219,-3.5227,-3.5289,-3.5306,-3.5259,-3.5257,-3.5266,-3.5324,-3.5346,-3.5352,-3.545,-3.5368,-3.5373,-3.5377,-3.5379,-3.5622,-3.5625,0,0,0,0,0,0,-3.5117,-3.513,-3.5261,-3.5266,-3.517,-3.5224,-3.5233,-3.5266,-3.5305,-3.5308,-3.5269,-3.5264,-3.5337,-3.5346,-3.5355,-3.5463,-3.5374,-3.5379,-3.5382,-3.5618,-3.5622,-3.5626,0,0,0,0,0,0,-3.5114,-3.5129,-3.5258,-3.5198,-3.5213,-3.5231,-3.5268,-3.5269,-3.5291,-3.5312,-3.5314,-3.5288,-3.5336,-3.5347,-3.5421,-3.5465,-3.5382,-3.5387,-3.5615,-3.562,-3.5624,-3.5682,0,0,0,0,0,0,-3.5109,-3.5128,-3.5164,-3.5199,-3.5217,-3.5324,-3.5271,-3.5273,-3.5301,-3.5296,-3.5331,-3.5334,-3.5334,-3.5413,-3.5426,-3.5471,-3.5391,-3.5611,-3.5617,-3.5622,-3.5676,-3.5688,-3.5698,0,0,0,0,0,-3.5103,-3.5177,-3.5166,-3.5182,-3.5262,-3.5327,-3.5337,-3.5337,-3.5305,-3.5341,-3.5354,-3.5333,-3.5458,-3.542,-3.5435,-3.5483,-3.5608,-3.5615,-3.5622,-3.5671,-3.5685,-3.5698,0,0,0,0,0,0,-3.5145,-3.5181,-3.517,-3.5258,-3.529,-3.5321,-3.5366,-3.5352,-3.5393,-3.5386,-3.5383,-3.5391,-3.5467,-3.5482,-3.544,-3.5573,-3.5528,-3.5538,-3.556,-3.5574,-3.5585,-3.5579,-3.5396,0,0,0,0,0,-3.5165,-3.5217,-3.5244,-3.5319,-3.5336,-3.5348,-3.5376,-3.5374,-3.5406,-3.5419,-3.5438,-3.5469,-3.5515,-3.5545,-3.5589,-3.5678,-3.5684,-3.5718,-3.5729,-3.5738,-3.5747,-3.5794,-3.5809,-3.5649,-3.5649,-3.5649,0,0,-3.5207,-3.5232,-3.5265,-3.5328,-3.5353,-3.5405,-3.536,-3.5416,-3.5454,-3.5427,-3.5498,-3.5513,-3.5547,-3.5629,-3.5666,-3.5644,-3.5793,-3.5747,-3.5754,-3.5758,-3.5803,-3.5818,-3.5831,-3.5653,-3.5653,-3.5652,0,0,-3.5308,-3.5333,-3.5398,-3.5424,-3.5462,-3.547,-3.5485,-3.5519,-3.5528,-3.56,-3.558,-3.5624,-3.5704,-3.573,-3.5753,-3.5864,-3.5846,-3.5878,-3.5935,-3.5982,-3.5994,-3.6005,-3.6044,-3.6058,-3.5887,-3.5887,-3.5887,0,-3.5354,-3.5433,-3.5433,-3.5491,-3.5519,-3.5499,-3.5563,-3.5588,-3.5638,-3.5657,-3.5632,-3.5732,-3.5753,-3.584,-3.5868,-3.5887,-3.5904,-3.5874,-3.5993,-3.6004,-3.6014,-3.6051,-3.6066,-3.5891,-3.589,-3.589,-3.5889,0,-3.5487,-3.5542,-3.5589,-3.564,-3.5673,-3.5734,-3.5742,-3.5776,-3.577,-3.578,-3.5852,-3.5878,-3.5926,-3.5946,-3.5941,-3.6032,-3.6018,-3.5993,-3.5948,-3.6033,-3.6068,-3.6082,-3.5896,-3.5894,-3.5893,-3.5893,0,0,-3.5617,-3.5667,-3.5685,-3.5707,-3.5748,-3.5789,-3.5849,-3.5898,-3.5926,-3.5961,-3.601,-3.6079,-3.6056,-3.6083,-3.6079,-3.612,-3.6205,-3.609,-3.6091,-3.611,-3.6307,-3.6325,-3.6341,-3.6194,-3.6197,-3.6199,-3.6304,0,-3.5721,-3.5828,-3.583,-3.5927,-3.5977,-3.5958,-3.6009,-3.6039,-3.605,-3.6092,-3.6103,-3.6152,-3.6119,-3.6135,-3.6174,-3.6187,-3.6245,-3.6179,-3.6238,-3.624,-3.623,-3.6359,-3.6379,-3.6476,-3.6317,-3.632,-3.6321,0,-3.5857,-3.5898,-3.6001,-3.6034,-3.6055,-3.6102,-3.6146,-3.6188,-3.622,-3.6225,-3.6255,-3.6246,-3.6305,-3.6259,-3.634,-3.6295,-3.6319,-3.6329,-3.6333,-3.6337,-3.6286,-3.6367,-3.6508,-3.6522,-3.6343,-3.6341,-3.6339,0,-3.5941,-3.6022,-3.6093,-3.6113,-3.6154,-3.6187,-3.6205,-3.6235,-3.6264,-3.6303,-3.6321,-3.6365,-3.639,-3.6423,-3.6425,-3.6392,-3.6507,-3.6461,-3.6511,-3.6511,-3.6536,-3.6534,-3.6681,-3.6553,-3.6552,-3.6552,-3.6552,0,-3.6057,-3.612,-3.6132,-3.6176,-3.6246,-3.6246,-3.6315,-3.633,-3.6357,-3.6402,-3.6388,-3.6431,-3.6431,-3.6475,-3.6476,-3.6543,-3.6554,-3.6558,-3.6558,-3.6559,-3.6559,-3.6574,-3.6567,-3.6556,-3.6555,-3.6554,-3.6554,0,-3.6162,-3.6173,-3.625,-3.6282,-3.6292,-3.6342,-3.6369,-3.641,-3.6419,-3.6477,-3.6491,-3.6505,-3.6555,-3.6561,-3.6619,-3.662,-3.6699,-3.6692,-3.6689,-3.6687,-3.6737,-3.6732,-3.6899,-3.6921,-3.6779,-3.678,-3.6781,0,-3.6235,-3.6284,-3.6322,-3.6352,-3.6372,-3.6421,-3.6451,-3.6453,-3.6484,-3.6525,-3.6561,-3.661,-3.6649,-3.673,-3.6744,-3.6788,-3.6781,-3.6837,-3.6788,-3.6787,-3.6781,-3.6778,-3.6782,-3.6846,-3.6848,-3.6849,-3.685,0,-3.6363,-3.6366,-3.6411,-3.6457,-3.6494,-3.653,-3.6564,-3.6589,-3.6595,-3.6631,-3.6682,-3.6713,-3.6772,-3.6821,-3.6864,-3.6881,-3.6866,-3.6865,-3.6879,-3.6881,-3.6877,-3.6879,-3.6714,-3.6861,-3.686,-3.6859,-3.6859,-3.6858,-3.6454,-3.6496,-3.653,-3.6579,-3.6606,-3.6638,-3.6678,-3.6693,-3.6737,-3.6786,-3.6784,-3.6841,-3.6871,-3.6929,-3.6949,-3.6992,-3.6973,-3.6993,-3.6998,-3.7003,-3.7008,-3.6871,-3.7,-3.6999,-3.6999,-3.6999,-3.6998,0,-3.6581,-3.6602,-3.6648,-3.6696,-3.6735,-3.672,-3.6756,-3.6789,-3.684,-3.687,-3.691,-3.6968,-3.7015,-3.7034,-3.7079,-3.711,-3.7104,-3.7121,-3.7119,-3.7123,-3.7022,-3.7006,-3.7125,-3.7125,-3.7125,-3.7125,-3.7125,-3.7125,-3.6651,-3.6721,-3.6728,-3.6811,-3.683,-3.6887,-3.6909,-3.6938,-3.6963,-3.703,-3.7069,-3.7081,-3.7106,-3.7153,-3.7195,-3.7199,-3.7216,-3.7236,-3.7237,-3.7143,-3.713,-3.7118,-3.7102,-3.724,-3.724,-3.7334,-3.7334,-3.7335]}]]